Togiak, AK

2:16 AM AKST on February 22, 2017 (GMT -0900)
Togiak

Weather History for PATG - October, 2013

Change the Weather History Date:

Wednesday, October 2, 2013

  Actual Average Record
Temperature  
Mean Temperature 34 °F -  
Max Temperature 48 °F 44 °F 55 °F (2014)
Min Temperature 23 °F 32 °F 21 °F (1998)
Degree Days  
Heating Degree Days 30    
Moisture  
Dew Point 26 °F    
Average Humidity 76    
Maximum Humidity 93    
Minimum Humidity 50    
Precipitation  
Precipitation 0.00 in - - ()
Sea Level Pressure  
Sea Level Pressure 29.72 in    
Wind  
Wind Speed 10 mph (NNE)    
Max Wind Speed 14 mph    
Max Gust Speed -    
Visibility 10 miles    
Events      
Averages and records for this station are not official NWS values.
T = Trace of Precipitation, MM = Missing Value Source: NWS Daily Summary

Daily Weather History Graph

Daily Weather History Graph

Search for Another Location

Airport or City:

Trip Planner

Search our weather history database for the weather conditions in past years. The results will help you decide how hot, cold, wet, or windy it might be!

Date:

Astronomy

Oct. 02, 2013 Rise Set
Actual Time 8:49 AM AKDT 8:10 PM AKDT
Civil Twilight 8:09 AM AKDT 8:50 PM AKDT
Nautical Twilight 7:22 AM AKDT 9:37 PM AKDT
Astronomical Twilight 6:33 AM AKDT 10:26 PM AKDT
Moon 6:11 AM AKDT (10/2) 7:08 PM AKDT (10/2)
Length of Visible Light 12h 40m
Length of Day
11h 20m
Waning Crescent, 5% of the Moon is Illuminated
Oct 2
Waning Crescent
Oct 4
New
Oct 11
First Quarter
Oct 18
Full
Oct 26
Last Quarter

Hourly Weather History & Observations

Time (AKDT) Temp. Windchill Dew Point Humidity Pressure Visibility Wind Dir Wind Speed Gust Speed Precip Events Conditions
3:16 AM 26.6 °F 17.5 °F 23.0 °F 86% 29.76 in 10.0 mi North 9.2 mph - N/A   Clear
3:36 AM 26.6 °F 16.8 °F 23.0 °F 86% 29.76 in 10.0 mi NNE 10.4 mph - N/A   Clear
3:56 AM 26.6 °F 16.8 °F 21.2 °F 80% 29.76 in 10.0 mi North 10.4 mph - N/A   Clear
4:16 AM 26.6 °F 16.2 °F 21.2 °F 80% 29.75 in 10.0 mi North 11.5 mph - N/A   Clear
4:36 AM 24.8 °F 14.0 °F 21.2 °F 86% 29.74 in 10.0 mi North 11.5 mph - N/A   Clear
4:56 AM 24.8 °F 16.9 °F 21.2 °F 86% 29.74 in 10.0 mi North 6.9 mph - N/A   Clear
5:16 AM 24.8 °F 17.9 °F 19.4 °F 80% 29.74 in 10.0 mi North 5.8 mph - N/A   Clear
5:36 AM 24.8 °F 16.9 °F 21.2 °F 86% 29.75 in 10.0 mi NNE 6.9 mph - N/A   Clear
5:56 AM 24.8 °F 16.9 °F 19.4 °F 80% 29.75 in 10.0 mi North 6.9 mph - N/A   Clear
6:16 AM 23.0 °F 14.7 °F 19.4 °F 86% 29.74 in 10.0 mi NNE 6.9 mph - N/A   Clear
6:36 AM 23.0 °F 17.0 °F 19.4 °F 86% 29.75 in 10.0 mi North 4.6 mph - N/A   Clear
6:56 AM 24.8 °F 16.9 °F 21.2 °F 86% 29.74 in 10.0 mi North 6.9 mph - N/A   Clear
7:16 AM 24.8 °F 16.9 °F 21.2 °F 86% 29.75 in 10.0 mi North 6.9 mph - N/A   Clear
7:36 AM 26.6 °F 18.2 °F 23.0 °F 86% 29.74 in 10.0 mi North 8.1 mph - N/A   Clear
7:56 AM 26.6 °F 17.5 °F 23.0 °F 86% 29.74 in 10.0 mi North 9.2 mph - N/A   Clear
8:16 AM 26.6 °F 17.5 °F 24.8 °F 93% 29.74 in 10.0 mi North 9.2 mph - N/A   Clear
8:36 AM 26.6 °F 15.7 °F 23.0 °F 86% 29.73 in 10.0 mi North 12.7 mph - N/A   Clear
8:56 AM 26.6 °F 19.1 °F 23.0 °F 86% 29.73 in 10.0 mi North 6.9 mph - N/A   Clear
9:16 AM 26.6 °F 16.2 °F 23.0 °F 86% 29.73 in 10.0 mi North 11.5 mph - N/A   Clear
9:36 AM 26.6 °F 15.7 °F 24.8 °F 93% 29.72 in 10.0 mi NNE 12.7 mph - N/A   Clear
9:56 AM 26.6 °F 15.7 °F 24.8 °F 93% 29.72 in 10.0 mi North 12.7 mph - N/A   Clear
10:16 AM 28.4 °F 18.5 °F 24.8 °F 86% 29.72 in 10.0 mi NNE 11.5 mph - N/A   Clear
10:36 AM 28.4 °F 18.5 °F 26.6 °F 93% 29.71 in 10.0 mi NNE 11.5 mph - N/A   Clear
10:56 AM 30.2 °F 21.9 °F 26.6 °F 86% 29.71 in 10.0 mi NNE 9.2 mph - N/A   Clear
11:16 AM 32.0 °F 23.0 °F 28.4 °F 87% 29.71 in 10.0 mi NNE 11.5 mph - N/A   Clear
11:36 AM 33.8 °F 25.8 °F 28.4 °F 81% 29.71 in 10.0 mi NNE 10.4 mph - N/A   Clear
11:56 AM 35.6 °F 27.1 °F 30.2 °F 81% 29.70 in 10.0 mi NNE 12.7 mph - N/A   Clear
12:16 PM 37.4 °F 29.3 °F 30.2 °F 75% 29.70 in 10.0 mi NNE 12.7 mph - N/A   Clear
12:36 PM 39.2 °F 31.2 °F 30.2 °F 70% 29.70 in 10.0 mi NNE 13.8 mph - N/A   Clear
12:56 PM 39.2 °F 32.5 °F 30.2 °F 70% 29.69 in 10.0 mi NNE 10.4 mph - N/A   Clear
1:16 PM 42.8 °F 37.5 °F 30.2 °F 61% 29.69 in 10.0 mi NNE 9.2 mph - N/A   Clear
1:36 PM 44.6 °F 39.7 °F 30.2 °F 57% 29.69 in 10.0 mi NE 9.2 mph - N/A   Clear
1:56 PM 46.4 °F 40.7 °F 32.0 °F 57% 29.69 in 10.0 mi East 12.7 mph - N/A   Clear
2:16 PM 46.4 °F 40.7 °F 30.2 °F 53% 29.69 in 10.0 mi East 12.7 mph - N/A   Clear
2:36 PM 46.4 °F 41.1 °F 30.2 °F 53% 29.69 in 10.0 mi East 11.5 mph - N/A   Clear
2:56 PM 46.4 °F 40.7 °F 30.2 °F 53% 29.68 in 10.0 mi East 12.7 mph - N/A   Clear
3:16 PM 46.4 °F 40.7 °F 32.0 °F 57% 29.68 in 10.0 mi East 12.7 mph - N/A   Clear
3:36 PM 46.4 °F 41.5 °F 30.2 °F 53% 29.68 in 10.0 mi ENE 10.4 mph - N/A   Clear
3:56 PM 46.4 °F 41.9 °F 32.0 °F 57% 29.67 in 10.0 mi ENE 9.2 mph - N/A   Clear
4:16 PM 46.4 °F 41.5 °F 30.2 °F 53% 29.66 in 10.0 mi ENE 10.4 mph - N/A   Clear
4:36 PM 48.2 °F - 30.2 °F 50% 29.66 in 10.0 mi East 12.7 mph - N/A   Clear